KC8ZBC Weather Reports


Display with metric or nautical units.
time (UTC)temp
F
wind
direction
speed
MPH
gust
MPH
rain 1hr
in
rain 24hr
in
rain mn
in
humidity
%
barometer
mb
20260510204113 57 210 4.0 6.0 0.00 0.00 0.00 34 992.9
20260510203610 57 259 2.0 4.0 0.00 0.00 0.00 37 993.0
20260510203107 57 90 1.0 5.0 0.00 0.00 0.00 33 993.0
20260510202606 58 318 3.0 5.0 0.00 0.00 0.00 33 993.0
20260510202102 57 28 3.0 7.0 0.00 0.00 0.00 33 992.9
20260510201600 56 90 2.0 3.0 0.00 0.00 0.00 34 993.2
20260510201057 56 300 1.0 5.0 0.00 0.00 0.00 35 993.1
20260510200552 57 289 2.0 5.0 0.00 0.00 0.00 32 993.0
20260510200050 57 300 1.0 6.0 0.00 0.00 0.00 34 993.3
20260510195548 57 117 2.0 4.0 0.00 0.00 0.00 35 993.2
20260510195044 58 221 2.0 8.0 0.00 0.00 0.00 33 993.4
20260510194539 56 327 2.0 5.0 0.00 0.00 0.00 35 993.4
20260510194035 56 290 0.0 4.0 0.00 0.00 0.00 36 993.3
20260510193530 56 289 1.0 7.0 0.00 0.00 0.00 35 993.2
20260510193026 56 12 0.0 4.0 0.00 0.00 0.00 35 993.4
20260510192526 56 324 2.0 3.0 0.00 0.00 0.00 34 993.4
20260510192023 56 332 2.0 5.0 0.00 0.00 0.00 34 993.5
20260510191519 57 321 0.0 8.0 0.00 0.00 0.00 34 993.5
20260510191016 57 115 2.0 5.0 0.00 0.00 0.00 34 993.4
20260510190514 57 239 3.0 4.0 0.00 0.00 0.00 35 993.5
20260510190010 58 219 3.0 4.0 0.00 0.00 0.00 35 993.6
20260510185507 57 227 3.0 4.0 0.00 0.00 0.00 36 993.5
20260510185004 55 276 3.0 5.0 0.00 0.00 0.00 35 993.3
20260510184502 56 300 3.0 5.0 0.00 0.00 0.00 33 993.3
20260510184002 55 7 0.0 4.0 0.00 0.00 0.00 35 993.3
20260510183458 56 180 0.0 3.0 0.00 0.00 0.00 36 993.3
20260510182953 55 310 0.0 3.0 0.00 0.00 0.00 35 993.2
20260510182449 57 229 3.0 4.0 0.00 0.00 0.00 34 993.3
20260510181945 57 203 1.0 4.0 0.00 0.00 0.00 33 993.0
20260510181444 58 257 2.0 5.0 0.00 0.00 0.00 35 993.3
20260510180939 57 231 3.0 5.0 0.00 0.00 0.00 35 993.1
20260510180436 56 352 0.0 4.0 0.00 0.00 0.00 35 993.0
20260510175933 55 17 4.0 5.0 0.00 0.00 0.00 33 993.0
20260510175429 57 352 3.0 4.0 0.00 0.00 0.00 34 993.0
20260510174925 56 294 0.0 4.0 0.00 0.00 0.00 33 993.0
20260510174423 55 235 7.0 9.0 0.00 0.00 0.00 34 992.8
20260510173919 57 93 3.0 5.0 0.00 0.00 0.00 34 992.9
20260510173415 56 45 2.0 8.0 0.00 0.00 0.00 35 992.8
20260510172912 57 278 2.0 5.0 0.00 0.00 0.00 33 993.0
20260510172408 58 260 0.0 5.0 0.00 0.00 0.00 33 992.8
20260510171903 57 257 2.0 4.0 0.00 0.00 0.00 34 993.0
20260510171401 56 61 7.0 8.0 0.00 0.00 0.00 32 993.0
20260510170858 57 296 4.0 6.0 0.00 0.00 0.00 33 993.3
20260510170355 57 207 6.0 10.0 0.00 0.00 0.00 34 993.2
20260510165850 55 239 3.0 6.0 0.00 0.00 0.00 36 993.0
20260510165347 57 279 0.0 4.0 0.00 0.00 0.00 37 993.0
20260510164844 56 219 4.0 4.0 0.00 0.00 0.00 36 992.9
20260510164341 57 40 5.0 5.0 0.00 0.00 0.00 36 992.9
20260510163840 56 50 3.0 5.0 0.00 0.00 0.00 36 993.3
20260510163338 56 282 3.0 8.0 0.00 0.00 0.00 35 993.0
20260510162831 57 267 3.0 9.0 0.00 0.00 0.00 37 992.9
20260510162329 56 175 3.0 5.0 0.00 0.00 0.00 36 993.2
20260510161824 55 323 2.0 5.0 0.00 0.00 0.00 36 993.0
20260510161320 55 286 0.0 4.0 0.00 0.00 0.00 36 993.0
20260510160818 56 222 3.0 4.0 0.00 0.00 0.00 39 993.1
20260510160315 54 180 1.0 7.0 0.00 0.00 0.00 38 992.8
20260510155809 55 233 2.0 5.0 0.00 0.00 0.00 40 993.0
20260510155306 54 308 4.0 5.0 0.00 0.00 0.00 36 992.9
20260510154802 55 279 2.0 6.0 0.00 0.00 0.00 36 992.8
20260510154258 55 262 3.0 5.0 0.00 0.00 0.00 37 992.9
20260510153758 55 299 2.0 5.0 0.00 0.00 0.00 37 992.7
20260510153254 54 285 3.0 5.0 0.00 0.00 0.00 38 992.9
20260510152751 55 218 7.0 7.0 0.00 0.00 0.00 40 992.6
20260510152248 53 45 0.0 4.0 0.00 0.00 0.00 41 992.7
20260510151744 52 215 0.0 6.0 0.00 0.00 0.00 42 992.6
20260510151242 53 23 1.0 4.0 0.00 0.00 0.00 40 992.6
20260510150738 53 243 0.0 4.0 0.00 0.00 0.00 40 992.8
20260510150234 53 199 2.0 5.0 0.00 0.00 0.00 42 992.5
20260510145730 54 290 3.0 5.0 0.00 0.00 0.00 42 992.4
20260510145227 53 70 2.0 4.0 0.00 0.00 0.00 41 992.5
20260510144722 54 197 3.0 4.0 0.00 0.00 0.00 41 992.5
20260510144220 54 315 2.0 3.0 0.00 0.00 0.00 39 992.4
20260510143714 54 315 0.0 3.0 0.00 0.00 0.00 40 992.1
20260510143211 53 234 1.0 3.0 0.00 0.00 0.00 43 992.3
20260510142707 53 286 0.0 4.0 0.00 0.00 0.00 42 992.2
20260510142204 53 237 0.0 3.0 0.00 0.00 0.00 43 992.2
20260510141701 50 47 3.0 6.0 0.00 0.00 0.00 43 992.3
20260510141200 51 39 3.0 4.0 0.00 0.00 0.00 42 992.0
20260510140655 51 287 2.0 3.0 0.00 0.00 0.00 43 992.2
20260510140155 51 270 2.0 5.0 0.00 0.00 0.00 41 992.1
20260510135650 50 332 0.0 5.0 0.00 0.00 0.00 42 992.0
20260510135146 49 294 1.0 7.0 0.00 0.00 0.00 44 991.9
20260510134644 50 233 0.0 3.0 0.00 0.00 0.00 45 991.9
20260510134141 49 10 0.0 5.0 0.00 0.00 0.00 43 991.9
20260510133637 49 266 2.0 6.0 0.00 0.00 0.00 43 992.0
20260510133132 49 297 2.0 4.0 0.00 0.00 0.00 44 992.0
20260510132629 50 197 2.0 2.0 0.00 0.00 0.00 45 992.0
20260510132127 50 206 0.0 2.0 0.00 0.00 0.00 48 991.8
20260510131624 48 303 0.0 3.0 0.00 0.00 0.00 51 991.8
20260510131121 48 356 0.0 4.0 0.00 0.00 0.00 48 991.7
20260510130618 49 228 0.0 2.0 0.00 0.00 0.00 50 991.9
20260510130115 48 6 1.0 4.0 0.00 0.00 0.00 53 991.8
20260510125611 47 225 2.0 3.0 0.00 0.00 0.00 57 991.4
20260510125108 47 45 2.0 5.0 0.00 0.00 0.00 54 991.7
20260510124604 47 311 1.0 2.0 0.00 0.00 0.00 58 991.8
20260510124101 46 86 3.0 3.0 0.00 0.00 0.00 60 991.6
20260510123556 46 63 0.0 3.0 0.00 0.00 0.00 59 991.6
20260510123053 45 286 2.0 2.0 0.00 0.00 0.00 61 991.3
20260510122549 44 277 0.0 3.0 0.00 0.00 0.00 62 991.4
20260510122045 44 297 1.0 2.0 0.00 0.00 0.00 64 991.4
20260510121542 43 145 0.0 0.0 0.00 0.00 0.00 64 991.2
20260510121039 43 121 0.0 0.0 0.00 0.00 0.00 65 991.1
20260510120537 43 307 0.0 2.0 0.00 0.00 0.00 67 991.0
20260510120032 43 165 0.0 2.0 0.00 0.00 0.00 65 990.9
20260510115529 42 90 0.0 3.0 0.00 0.00 0.00 71 990.9
20260510115026 41 251 0.0 3.0 0.00 0.00 0.00 69 990.9
20260510114522 41 286 0.0 0.0 0.00 0.00 0.00 71 990.9
20260510114018 41 90 0.0 1.0 0.00 0.00 0.00 71 990.9
20260510113514 41 285 0.0 0.0 0.00 0.00 0.00 69 990.9
20260510113012 41 300 0.0 2.0 0.00 0.00 0.00 70 990.8
20260510112508 40 18 0.0 2.0 0.00 0.00 0.00 71 990.8
20260510112004 39 337 0.0 1.0 0.00 0.00 0.00 77 990.7
20260510111501 39 145 0.0 0.0 0.00 0.00 0.00 79 990.7
20260510110957 38 90 0.0 2.0 0.00 0.00 0.00 78 990.6
20260510110453 38 98 0.0 1.0 0.00 0.00 0.00 82 990.5
20260510105949 37 90 0.0 1.0 0.00 0.00 0.00 84 990.5
20260510105445 37 90 0.0 1.0 0.00 0.00 0.00 84 990.2
20260510104940 37 90 0.0 0.0 0.00 0.00 0.00 86 990.2
20260510104437 37 120 0.0 1.0 0.00 0.00 0.00 85 990.1
20260510103933 36 106 0.0 0.0 0.00 0.00 0.00 85 990.2
20260510103431 36 114 1.0 2.0 0.00 0.00 0.00 84 990.0
20260510102926 36 106 0.0 1.0 0.00 0.00 0.00 85 990.0
20260510102422 37 106 0.0 1.0 0.00 0.00 0.00 85 990.1
20260510101919 37 106 0.0 0.0 0.00 0.00 0.00 84 990.0
20260510101417 37 98 0.0 1.0 0.00 0.00 0.00 83 990.0
20260510100914 37 98 0.0 0.0 0.00 0.00 0.00 83 989.9
20260510100411 37 165 0.0 0.0 0.00 0.00 0.00 83 989.9
20260510095907 38 165 0.0 0.0 0.00 0.00 0.00 81 989.6
20260510095403 38 117 0.0 1.0 0.00 0.00 0.00 81 989.5
20260510094902 38 35 0.0 0.0 0.00 0.00 0.00 80 989.6
20260510094357 38 90 0.0 0.0 0.00 0.00 0.00 79 989.6
20260510093854 38 90 0.0 1.0 0.00 0.00 0.00 80 989.5
20260510093349 39 165 0.0 0.0 0.00 0.00 0.00 79 989.3
20260510092846 39 90 0.0 0.0 0.00 0.00 0.00 78 989.2
20260510092342 39 257 0.0 0.0 0.00 0.00 0.00 78 989.1
20260510091838 39 257 0.0 0.0 0.00 0.00 0.00 79 989.2
20260510091335 39 206 0.0 1.0 0.00 0.00 0.00 77 989.2
20260510090832 40 15 0.0 1.0 0.00 0.00 0.00 76 988.9
20260510090328 39 337 0.0 1.0 0.00 0.00 0.00 78 988.9
20260510085824 39 300 0.0 1.0 0.00 0.00 0.00 79 988.8
20260510085318 40 7 0.0 0.0 0.00 0.00 0.00 81 988.8
20260510084814 40 106 0.0 1.0 0.00 0.00 0.00 75 988.6
20260510084311 40 151 0.0 2.0 0.00 0.00 0.00 74 988.5
20260510083808 41 106 0.0 0.0 0.00 0.00 0.00 74 988.6
20260510083305 41 294 0.0 1.0 0.00 0.00 0.00 72 988.4
20260510082800 41 270 0.0 1.0 0.00 0.00 0.00 71 988.4
20260510082257 41 290 0.0 2.0 0.00 0.00 0.00 71 988.2
20260510081756 42 300 0.0 2.0 0.00 0.00 0.00 70 988.1
20260510081252 42 346 0.0 3.0 0.00 0.00 0.00 70 988.1
20260510080748 42 14 0.0 2.0 0.00 0.00 0.00 70 988.2
20260510080243 42 303 0.0 2.0 0.00 0.00 0.00 70 987.9
20260510075741 42 345 0.0 1.0 0.00 0.00 0.00 69 988.0
20260510075238 42 350 0.0 2.0 0.00 0.00 0.00 68 987.8
20260510074735 42 5 0.0 1.0 0.00 0.00 0.00 68 987.7
20260510074232 43 15 0.0 0.0 0.00 0.00 0.00 69 987.6
20260510073728 43 291 0.0 1.0 0.00 0.00 0.00 67 987.6
20260510073224 43 278 0.0 0.0 0.00 0.00 0.00 69 987.4
20260510072720 43 26 0.0 0.0 0.00 0.00 0.00 66 987.7
20260510072216 43 354 1.0 1.0 0.00 0.00 0.00 66 987.4
20260510071713 43 29 0.0 2.0 0.00 0.00 0.00 65 987.3
20260510071210 44 270 0.0 1.0 0.00 0.00 0.00 65 987.1
20260510070708 44 300 1.0 1.0 0.00 0.00 0.00 64 986.9
20260510070205 44 270 1.0 1.0 0.00 0.00 0.00 64 987.1
20260510065700 44 0 0.0 1.0 0.00 0.00 0.00 66 987.1
20260510065157 44 306 0.0 0.0 0.00 0.00 0.00 71 987.1
20260510064654 44 306 0.0 0.0 0.00 0.00 0.00 68 986.9
20260510064151 44 35 0.0 0.0 0.00 0.00 0.00 64 987.0
20260510063648 45 35 0.0 0.0 0.00 0.00 0.00 66 986.8
20260510063144 45 35 0.0 0.0 0.00 0.00 0.00 64 986.7
20260510062641 45 26 0.0 1.0 0.00 0.00 0.00 64 986.6
20260510062137 45 354 0.0 0.0 0.00 0.00 0.00 65 986.6
20260510061632 45 243 0.0 1.0 0.00 0.00 0.00 66 986.5
20260510061130 46 69 0.0 1.0 0.00 0.00 0.00 65 986.4
20260510060625 46 15 0.0 1.0 0.00 0.00 0.00 66 986.2
20260510060121 46 270 0.0 2.0 0.00 0.00 0.00 65 986.2
20260510055618 47 353 0.0 1.0 0.00 0.00 0.00 65 986.2
20260510055116 47 32 0.0 0.0 0.00 0.00 0.00 64 986.5
20260510054611 47 23 0.0 3.0 0.00 0.00 0.00 63 986.2
20260510054106 48 354 0.0 4.0 0.00 0.00 0.00 62 986.1
20260510053601 48 68 5.0 9.0 0.00 0.00 0.00 64 986.1
20260510053058 47 99 0.0 1.0 0.00 0.00 0.00 65 986.1
20260510052554 47 90 1.0 1.0 0.00 0.00 0.00 67 985.7
20260510052050 48 96 0.0 2.0 0.00 0.00 0.00 66 985.9
20260510051546 47 234 0.0 1.0 0.00 0.00 0.00 67 985.6
20260510051042 47 217 0.0 0.0 0.00 0.00 0.00 66 985.6
20260510050539 48 172 0.0 0.0 0.00 0.00 0.00 67 985.5
20260510050036 48 209 0.0 2.0 0.00 0.00 0.00 68 985.3
20260510045534 48 74 0.0 0.0 0.00 0.00 0.00 66 985.4
20260510045030 48 261 0.0 2.0 0.00 0.00 0.00 67 985.1
20260510044527 48 165 0.0 0.0 0.00 0.00 0.00 66 985.1
20260510044025 48 188 0.0 1.0 0.00 0.00 0.00 69 984.9
20260510043520 48 203 0.0 1.0 0.00 0.00 0.00 68 985.2
20260510043015 49 188 0.0 0.0 0.00 0.00 0.00 69 984.9
20260510042510 49 165 0.0 0.0 0.00 0.00 0.00 66 985.0
20260510042010 49 74 0.0 1.0 0.00 0.00 0.00 65 984.7
20260510041508 50 126 0.0 2.0 0.00 0.00 0.00 65 984.7
20260510041005 50 81 0.0 0.0 0.00 0.00 0.00 64 984.8
20260510040501 50 356 0.0 0.0 0.00 0.00 0.00 65 984.8
20260510035957 51 356 0.0 0.0 0.00 0.07 0.07 63 984.7
20260510035454 51 106 0.0 0.0 0.00 0.07 0.07 64 984.3
20260510034953 51 106 0.0 1.0 0.00 0.07 0.07 61 984.5
20260510034453 52 120 0.0 0.0 0.00 0.07 0.07 60 984.3
20260510033948 52 180 0.0 2.0 0.00 0.07 0.07 60 984.2
20260510033445 52 63 0.0 2.0 0.00 0.07 0.07 59 984.2
20260510032942 53 286 0.0 1.0 0.00 0.07 0.07 58 984.1
20260510032439 53 294 0.0 2.0 0.00 0.07 0.07 58 984.1
20260510031939 53 78 1.0 2.0 0.00 0.07 0.07 57 983.9
20260510031435 54 172 0.0 2.0 0.00 0.07 0.07 56 983.9
20260510030930 54 63 3.0 3.0 0.00 0.07 0.07 55 983.9
20260510030426 55 259 2.0 2.0 0.00 0.07 0.07 54 983.8
20260510025924 55 0 0.0 4.0 0.00 0.07 0.07 54 983.6
20260510025421 55 0 1.0 3.0 0.00 0.07 0.07 53 983.6
20260510024918 56 26 0.0 0.0 0.00 0.07 0.07 53 983.5
20260510024415 56 14 1.0 2.0 0.00 0.07 0.07 52 983.5
20260510023911 56 90 1.0 3.0 0.00 0.07 0.07 52 983.4
20260510023407 56 289 0.0 3.0 0.00 0.07 0.07 52 983.2
20260510022904 57 66 0.0 1.0 0.00 0.07 0.07 51 983.3
20260510022403 57 312 2.0 2.0 0.00 0.07 0.07 50 983.1
20260510021902 57 326 3.0 3.0 0.00 0.07 0.07 51 983.1
20260510021401 57 337 0.0 2.0 0.00 0.07 0.07 51 982.7
20260510020857 57 8 0.0 1.0 0.00 0.07 0.07 49 982.8
20260510020353 57 218 2.0 3.0 0.00 0.07 0.07 49 982.6
20260510015848 57 282 0.0 2.0 0.00 0.07 0.07 49 982.5
20260510015344 57 297 2.0 4.0 0.00 0.07 0.07 48 982.5
20260510014840 58 313 3.0 3.0 0.00 0.07 0.07 48 982.3
20260510014337 58 285 2.0 3.0 0.00 0.07 0.07 48 982.2
20260510013833 58 286 3.0 5.0 0.00 0.07 0.07 46 982.0
20260510013329 58 348 1.0 5.0 0.00 0.07 0.07 47 981.8
20260510012824 59 300 0.0 4.0 0.00 0.07 0.07 47 981.7
20260510012323 59 120 0.0 2.0 0.00 0.07 0.07 46 981.4
20260510011818 60 342 5.0 8.0 0.00 0.07 0.07 45 981.2
20260510011314 60 262 0.0 4.0 0.00 0.07 0.07 47 981.2
20260510010811 60 284 3.0 3.0 0.00 0.07 0.07 50 980.7
20260510010308 60 354 0.0 1.0 0.00 0.07 0.07 51 980.6
20260510005805 60 294 0.0 4.0 0.00 0.07 0.07 48 980.5
20260510005300 60 0 1.0 2.0 0.00 0.07 0.07 49 980.6
20260510004759 60 215 0.0 2.0 0.00 0.07 0.07 51 980.4
20260510004256 60 294 2.0 2.0 0.00 0.07 0.07 52 980.5
20260510003753 60 276 0.0 0.0 0.00 0.07 0.07 55 980.2
20260510003250 60 270 0.0 1.0 0.00 0.07 0.07 54 980.3
20260510002748 60 23 0.0 1.0 0.00 0.07 0.07 54 980.1
20260510002246 61 278 0.0 2.0 0.00 0.07 0.07 51 980.0
20260510001743 61 278 0.0 2.0 0.00 0.07 0.07 53 980.0
20260510001241 61 275 2.0 2.0 0.00 0.07 0.07 51 979.8
20260510000737 61 270 0.0 0.0 0.00 0.07 0.07 52 979.7
20260510000234 61 285 0.0 2.0 0.00 0.07 0.07 50 979.7
20260509235731 62 180 0.0 2.0 0.00 0.07 0.07 50 979.5
20260509235227 62 264 1.0 3.0 0.00 0.07 0.07 49 979.5
20260509234723 62 353 0.0 2.0 0.00 0.07 0.07 49 979.6
20260509234221 62 283 0.0 3.0 0.00 0.07 0.07 50 979.4
20260509233720 62 286 2.0 3.0 0.00 0.07 0.07 49 979.2
20260509233217 62 311 0.0 3.0 0.00 0.07 0.07 48 979.3
20260509232713 63 279 0.0 3.0 0.00 0.07 0.07 48 979.3
20260509232210 63 248 0.0 4.0 0.00 0.07 0.07 47 979.2
20260509231706 63 290 3.0 3.0 0.00 0.07 0.07 46 979.1
20260509231203 63 278 1.0 3.0 0.00 0.07 0.07 47 979.2
20260509230700 63 222 3.0 4.0 0.00 0.07 0.07 45 979.3
20260509230157 64 239 2.0 7.0 0.00 0.07 0.07 44 979.1
20260509225653 64 5 0.0 4.0 0.00 0.07 0.07 43 979.0
20260509225148 64 255 4.0 8.0 0.00 0.07 0.07 43 979.0
20260509224644 65 339 2.0 6.0 0.00 0.07 0.07 43 978.7
20260509224141 65 287 3.0 5.0 0.00 0.07 0.07 42 978.6
20260509223638 65 280 3.0 7.0 0.00 0.07 0.07 40 978.4
20260509223135 66 277 3.0 4.0 0.00 0.07 0.07 41 978.5
20260509222632 66 239 3.0 8.0 0.00 0.07 0.07 41 978.5
20260509222127 66 228 2.0 7.0 0.00 0.07 0.07 42 978.4
20260509221624 66 259 0.0 4.0 0.00 0.07 0.07 41 978.1
20260509221120 65 272 4.0 5.0 0.00 0.07 0.07 42 978.1
20260509220616 64 357 2.0 9.0 0.00 0.07 0.07 41 978.2
20260509220112 65 15 1.0 8.0 0.00 0.07 0.07 41 978.1
20260509215608 66 283 5.0 13.0 0.00 0.07 0.07 40 978.0
20260509215105 66 6 1.0 10.0 0.00 0.07 0.07 41 978.0
20260509214602 66 286 6.0 13.0 0.00 0.07 0.07 41 977.7
20260509214059 66 277 6.0 8.0 0.00 0.07 0.07 42 977.8
20260509213555 65 255 3.0 6.0 0.00 0.07 0.07 43 977.8
20260509213052 66 264 0.0 5.0 0.00 0.07 0.07 44 977.6
20260509212549 67 182 3.0 4.0 0.00 0.07 0.07 44 977.9
20260509212046 66 246 3.0 13.0 0.00 0.07 0.07 41 977.7
20260509211541 65 259 4.0 14.0 0.00 0.07 0.07 42 977.8
20260509211038 65 332 2.0 15.0 0.00 0.07 0.07 43 977.9
20260509210535 66 277 3.0 5.0 0.00 0.07 0.07 44 977.8
20260509210031 66 328 2.0 7.0 0.00 0.07 0.07 45 977.7
20260509205526 66 198 3.0 12.0 0.00 0.07 0.07 42 977.8
20260509205021 66 261 0.0 8.0 0.00 0.07 0.07 47 977.8
20260509204518 66 19 2.0 3.0 0.00 0.07 0.07 46 977.6